Theta_e
306 306 305 305 305 305 305 305 305 305 305 305 305 305 305 306 306 305 305 305 305 307 308 308 307 307 301 288 287 301 307 306 304 304 300 298 301 302 298 300 300 299 301 302 303 305 306
306 306 305 305 305 305 305 305 305 305 305 305 305 305 305 305 305 305 305 305 306 307 308 309 308 305 296 283 298 302 301 301 301 302 300 300 296 297 296 300 299 301 301 301 302 301 303
306 305 305 305 305 305 305 305 305 305 305 306 306 305 306 306 306 306 306 306 306 307 310 310 308 303 294 288 300 302 301 300 301 301 299 301 301 297 297 297 302 301 296 300 301 302 299
307 307 307 305 305 305 305 305 305 305 306 306 306 305 305 306 305 305 305 306 306 308 308 309 307 300 289 299 303 302 301 301 303 303 302 304 303 298 296 299 297 295 296 291 298 302 302
305 305 306 306 306 307 306 306 306 306 306 306 306 306 305 306 306 306 306 305 306 308 308 307 301 296 289 303 297 301 302 298 302 305 305 303 301 295 295 290 287 291 285 288 291 300 299
304 304 304 304 305 305 306 306 305 305 306 306 306 305 305 305 305 305 304 303 305 305 301 304 301 290 292 290 297 299 303 302 297 298 297 297 296 292 292 289 278 281 284 287 288 295 297
303 303 304 304 304 304 304 304 304 304 304 304 305 305 304 304 304 303 298 295 290 290 292 287 288 289 291 296 299 296 298 301 300 296 288 292 288 284 287 289 289 288 286 285 289 294 295
303 303 304 303 303 304 304 304 303 303 303 303 304 304 303 304 303 301 296 290 290 291 285 291 291 292 295 296 291 294 302 293 292 287 290 288 284 289 290 289 287 287 285 284 287 291 292
303 302 301 302 304 304 304 304 304 303 303 303 302 303 303 302 300 295 292 292 295 295 285 285 290 290 292 295 291 292 297 294 290 286 287 284 287 290 288 287 285 285 283 283 283 288 291
302 302 301 302 303 304 304 304 304 303 303 302 302 303 302 302 292 293 290 295 296 296 277 280 289 292 291 294 289 297 298 294 290 286 288 286 290 288 287 285 286 281 287 286 284 283 279
304 304 304 303 303 303 304 304 304 303 302 302 302 303 302 300 293 290 292 296 296 290 270 281 287 294 292 288 291 292 300 294 287 287 287 284 285 285 284 285 288 284 289 287 286 283 282
304 304 304 303 302 302 302 302 302 302 302 302 303 302 302 296 293 294 295 293 291 277 267 280 286 284 285 287 288 290 292 297 294 289 288 287 291 288 287 289 289 290 287 287 287 284 275
302 303 303 302 302 303 302 302 302 302 302 302 302 302 299 297 289 294 293 288 276 271 279 279 280 283 283 282 284 285 284 284 283 279 279 284 284 288 290 286 289 287 283 276 275 276 274
301 301 302 302 302 302 301 301 302 302 303 302 302 299 295 296 295 295 289 281 270 273 277 283 282 282 280 283 282 283 282 280 285 284 280 277 276 284 290 286 283 284 283 276 271 273 276
303 302 301 301 301 301 301 302 301 301 302 302 299 292 291 293 294 293 285 272 272 276 282 280 281 278 279 281 281 281 280 280 284 284 277 278 277 285 286 289 287 283 280 286 280 281 276
301 301 302 303 302 302 302 301 301 301 302 300 291 289 290 295 296 290 279 275 278 281 284 282 276 280 275 278 278 278 279 283 283 286 287 281 274 284 286 288 288 286 288 279 281 274 272
301 302 302 302 302 303 303 302 301 301 301 297 288 285 291 295 293 284 275 274 279 284 285 280 279 278 278 277 278 277 278 283 285 283 284 283 279 280 285 282 282 283 281 282 281 279 274
300 300 300 301 302 303 302 302 301 300 299 291 285 278 290 294 281 276 275 280 285 284 285 283 283 282 279 279 277 277 277 281 284 284 278 283 280 276 278 286 287 286 283 282 276 275 278
302 302 301 301 301 301 302 301 301 300 297 288 282 282 289 291 277 274 279 281 283 282 282 281 279 281 282 278 275 278 279 284 284 282 279 282 278 272 275 280 283 279 282 284 282 281 277
302 301 302 301 301 301 301 301 302 300 298 288 281 275 280 283 281 280 279 279 279 283 282 282 281 282 280 278 280 277 278 282 284 282 286 285 279 274 270 273 277 275 277 280 279 276 277
302 301 302 301 302 301 300 301 301 301 298 288 280 275 279 274 277 281 281 279 278 277 282 283 280 280 278 275 277 276 279 280 282 283 283 282 274 274 275 277 277 277 277 280 277 278 275
301 302 302 302 301 301 301 302 302 301 298 287 279 278 282 280 281 280 279 277 277 278 280 279 279 280 280 276 277 274 278 278 277 281 280 281 274 276 273 277 278 277 278 279 280 282 282
299 301 302 302 302 301 301 302 301 301 297 287 286 286 283 278 278 276 277 278 279 281 282 283 281 279 278 280 282 283 282 281 280 278 278 278 276 273 269 275 276 273 279 280 281 285 285
297 299 302 302 301 301 301 302 301 301 297 292 288 287 281 276 278 278 280 280 279 280 278 281 282 280 283 286 285 284 282 281 281 281 282 277 276 275 271 273 266 279 283 284 283 285 288
296 298 300 300 300 301 301 302 301 301 300 294 292 289 284 277 279 279 280 280 281 282 280 280 282 285 286 282 277 273 272 273 275 279 281 280 277 273 270 271 275 278 284 283 282 282 286
296 297 299 299 299 300 301 301 301 300 300 296 293 293 287 279 278 282 280 281 278 277 277 280 284 286 284 278 273 269 267 270 272 277 283 280 279 275 272 269 267 278 285 288 288 279 287
295 296 298 298 299 299 300 301 301 300 300 296 294 295 288 282 283 283 279 279 281 279 277 278 280 280 282 274 272 270 270 277 272 271 274 276 275 272 272 270 276 283 287 288 277 279 288
295 296 297 297 298 299 299 300 300 299 299 296 293 295 290 284 285 284 285 282 282 281 276 279 278 276 275 272 272 272 273 276 273 276 275 275 274 273 275 272 270 287 285 279 285 289 290
296 296 297 297 297 298 298 298 298 299 299 297 290 292 294 286 284 288 288 289 287 286 283 282 279 278 280 276 275 275 274 275 274 271 280 275 279 277 278 278 286 288 287 289 291 289 290
Wind_Speed
10 9 10 9 9 11 11 11 11 12 12 13 14 15 16 16 17 17 17 17 16 15 14 12 8 9 5 4 3 2 10 14 7 7 8 5 1 2 5 4 3 18 22 16 16 17 15
8 7 9 8 9 10 11 11 12 12 13 14 15 16 17 18 19 20 21 20 18 17 15 10 2 1 2 3 1 5 9 7 5 4 5 8 6 6 7 6 8 8 15 16 13 17 17
4 5 6 7 8 9 10 10 11 12 13 14 15 16 18 19 21 23 23 21 19 16 13 2 5 4 3 4 3 7 4 2 2 0 1 2 5 4 7 4 7 11 18 20 23 15 15
10 9 7 5 6 7 8 8 9 11 13 14 15 17 19 20 22 24 24 20 18 8 6 8 9 3 3 3 4 4 2 2 3 3 3 3 3 3 3 8 8 11 14 13 6 15 12
8 8 9 9 10 9 8 9 9 10 12 13 15 17 19 20 21 23 22 21 11 2 5 7 3 1 3 3 3 2 2 3 4 3 6 10 5 3 2 4 7 10 17 22 19 8 10
8 8 8 8 9 10 10 11 11 13 14 15 16 17 19 21 21 23 23 15 6 4 3 1 2 1 2 5 5 4 1 2 4 6 3 2 3 3 2 6 12 12 15 19 21 6 12
7 6 7 8 9 9 10 11 12 13 14 16 16 17 19 21 23 19 11 5 8 5 8 2 7 4 6 8 5 2 2 2 1 1 2 2 1 6 9 13 16 16 20 27 27 18 18
7 6 6 7 9 10 10 10 11 12 14 16 16 16 18 19 20 15 4 7 4 2 8 4 7 8 8 3 4 1 1 3 3 3 1 1 8 13 9 12 14 16 20 26 26 18 20
6 4 4 5 8 10 10 10 10 11 13 14 14 15 17 19 9 6 4 6 1 5 2 7 3 4 5 3 3 4 1 1 2 2 3 6 5 6 7 12 12 15 19 23 27 18 24
2 2 1 2 6 9 11 11 8 10 12 13 13 14 16 19 5 4 2 2 4 5 4 5 3 1 2 2 3 1 1 1 2 4 4 7 6 8 9 11 9 18 11 20 21 15 16
2 3 3 4 4 7 11 9 8 9 10 12 12 13 13 5 1 2 4 6 2 2 4 7 2 2 9 2 7 2 1 0 6 6 3 7 8 10 12 10 9 10 8 13 12 16 17
8 9 7 4 4 5 7 8 9 10 10 12 13 12 14 2 1 3 6 4 3 6 3 4 4 8 8 6 5 8 3 1 2 6 6 14 7 6 5 11 14 15 17 18 15 11 11
5 6 4 3 4 10 4 7 8 10 11 12 14 14 9 2 1 1 4 3 5 5 3 4 5 10 7 6 6 6 7 8 3 5 5 11 2 3 5 7 3 6 9 5 4 6 14
2 2 2 1 4 4 5 6 8 10 11 12 15 9 4 1 4 3 3 5 5 2 2 3 5 9 2 9 5 8 8 9 5 4 5 5 7 2 4 4 8 13 9 7 6 7 15
3 4 2 2 2 4 4 5 7 9 11 12 10 3 2 4 1 2 5 5 4 2 2 6 8 2 2 6 4 7 5 5 5 8 8 7 6 5 8 9 2 3 6 12 8 20 12
3 1 0 5 5 6 4 4 6 8 10 9 2 2 3 4 2 4 5 1 1 2 2 2 2 3 4 5 6 10 4 2 4 6 2 4 11 4 4 1 2 5 7 6 4 6 6
1 0 1 3 2 5 5 4 2 6 7 4 3 2 1 4 3 5 3 3 3 3 2 2 2 5 4 3 5 7 5 3 8 5 8 6 5 11 9 4 8 4 4 3 5 5 9
2 2 1 2 3 4 3 4 1 4 4 7 2 3 2 2 3 1 2 2 3 3 2 3 4 6 5 3 6 5 6 4 13 10 11 3 5 9 16 9 2 1 8 4 5 7 8
6 5 4 1 0 3 2 2 3 5 7 3 2 1 2 1 1 0 3 3 3 2 1 2 3 3 2 4 5 5 6 6 14 9 7 5 3 8 12 1 4 5 5 7 7 8 12
7 6 5 1 4 2 3 1 6 5 8 5 3 2 3 4 1 3 1 3 3 1 5 4 3 3 2 3 6 8 12 7 12 16 16 13 5 4 8 11 14 16 13 16 11 8 13
7 6 5 4 4 5 2 3 4 8 8 5 3 1 2 1 1 1 1 1 4 5 4 2 2 4 4 6 11 14 12 20 14 15 8 3 6 6 11 16 19 23 20 18 13 18 11
4 9 7 5 5 4 4 5 4 10 10 4 4 3 1 2 1 2 3 3 4 5 4 4 8 8 5 6 11 20 17 16 13 11 12 3 9 13 16 19 16 21 23 23 16 13 12
4 8 9 9 9 7 4 7 8 11 7 2 1 1 2 1 2 3 3 4 2 2 6 8 5 10 15 17 15 15 14 18 21 21 22 13 7 7 15 14 14 13 7 6 7 8 9
7 8 8 8 9 8 7 8 10 14 9 3 2 3 3 3 4 5 5 6 10 11 15 17 14 14 8 9 13 14 17 21 20 21 16 16 15 5 9 8 6 7 14 8 9 8 7
10 8 7 8 7 8 6 9 12 11 17 3 3 3 3 3 5 8 12 11 11 10 13 15 17 11 6 6 6 8 5 4 4 5 3 16 11 3 4 5 11 11 4 5 15 7 12
7 6 4 7 4 4 3 6 13 12 11 4 3 4 2 2 7 9 5 7 6 4 6 5 7 3 0 0 1 3 3 4 6 6 0 3 10 7 3 4 4 2 7 16 8 9 16
7 7 7 5 2 5 4 5 11 12 10 5 3 6 2 3 4 5 5 4 4 2 3 4 4 3 1 1 3 4 4 4 5 6 4 0 3 9 8 6 7 5 14 15 4 8 14
6 5 6 3 4 4 7 8 10 10 11 5 2 9 4 3 4 8 8 8 5 3 4 2 4 0 1 2 3 3 4 2 5 8 9 4 4 4 6 6 7 3 8 9 11 14 14
5 3 5 4 3 4 5 4 5 9 9 6 2 3 6 4 4 4 7 13 15 15 5 7 5 4 4 2 2 2 2 3 4 5 4 4 2 5 5 4 11 15 12 12 9 14 15
Wind_Direction
66 61 61 48 45 46 41 36 30 25 23 17 12 9 4 360 358 353 345 339 335 332 330 324 323 330 356 11 256 320 348 351 1 14 25 7 339 285 250 265 258 241 260 266 261 256 258
66 60 57 41 39 41 39 33 29 25 21 17 12 9 3 359 356 350 343 337 335 333 325 310 265 220 82 342 185 325 331 334 20 28 17 26 358 313 282 261 258 313 293 285 276 263 256
55 46 40 41 29 35 35 30 24 21 16 12 9 5 360 357 353 347 342 336 331 335 341 15 156 144 114 239 309 332 325 316 296 96 41 347 339 336 332 269 287 291 289 281 255 245 249
57 41 33 24 14 21 25 20 16 13 11 6 3 1 358 355 351 347 337 332 330 343 34 96 138 124 245 247 299 323 357 27 227 239 223 265 279 269 237 307 298 278 281 274 309 222 227
44 37 22 17 19 21 15 11 7 7 4 359 359 359 357 353 350 342 330 330 331 23 101 117 106 90 355 309 332 314 225 280 295 257 250 280 199 219 268 259 273 244 266 268 289 262 218
63 23 18 4 357 10 14 21 20 16 10 5 2 359 357 352 348 340 328 332 8 72 339 187 134 63 357 326 306 303 291 275 299 307 321 123 149 198 200 204 248 269 259 270 272 319 280
71 38 11 10 2 6 11 14 15 13 9 4 1 359 355 350 347 343 345 16 12 360 37 344 305 272 300 305 283 306 351 270 280 73 48 30 239 234 228 234 256 269 271 276 276 283 270
75 40 34 17 3 2 10 13 12 10 9 7 1 357 354 347 346 352 19 71 80 218 320 303 259 260 274 261 307 330 145 345 345 347 81 27 247 251 247 256 258 261 264 268 279 281 261
88 64 37 17 358 0 354 357 360 1 2 2 358 358 355 346 355 30 31 93 349 149 270 304 256 268 294 188 303 286 78 0 322 329 237 236 272 333 251 270 274 262 252 260 266 296 281
131 153 167 333 333 353 347 339 340 357 360 1 359 356 356 344 57 335 45 345 335 172 56 337 2 36 350 253 290 211 226 300 276 300 310 261 259 262 274 264 251 267 278 266 277 278 262
98 305 292 328 6 3 358 358 7 355 356 354 350 345 351 35 271 346 324 336 37 82 31 311 18 330 327 342 312 29 274 1 271 279 301 272 281 296 296 272 245 256 303 284 280 271 275
85 53 75 61 15 346 348 356 357 354 352 346 342 339 340 66 339 256 324 337 57 45 269 350 19 349 356 352 328 328 323 286 271 288 249 259 259 287 236 295 265 281 281 283 266 263 255
66 46 58 32 344 321 333 350 347 351 346 344 335 329 332 144 265 320 334 42 44 101 324 19 342 331 333 326 322 10 325 320 305 324 332 315 245 240 218 295 258 234 276 276 236 212 252
169 147 280 309 329 351 340 349 352 351 352 343 334 356 354 311 326 14 37 55 81 240 322 18 323 315 340 11 343 327 342 354 19 322 285 304 305 203 171 279 301 303 266 267 278 242 279
216 180 217 240 269 300 320 334 348 351 350 348 350 2 43 335 29 54 66 60 180 202 14 337 318 327 340 13 337 337 346 338 24 35 3 306 288 292 257 267 262 350 287 287 270 252 277
253 233 12 255 255 260 273 312 337 353 355 10 37 15 15 347 63 53 67 123 222 212 341 313 286 6 324 332 335 347 304 241 351 43 84 313 300 268 307 281 208 230 324 320 261 284 209
290 307 264 244 299 299 253 260 330 4 16 48 51 60 302 357 39 43 96 226 290 256 326 253 266 290 274 288 318 308 277 274 17 332 336 292 244 290 306 278 300 302 313 306 270 289 330
239 286 342 335 319 325 328 249 238 27 51 50 77 69 333 325 46 318 144 221 291 288 307 292 233 258 263 315 292 281 267 314 17 358 334 301 284 286 303 325 0 56 299 292 301 328 288
228 231 247 301 70 6 319 349 169 85 83 115 69 312 343 22 216 232 265 264 241 266 287 331 292 260 344 293 297 284 296 331 326 342 330 332 308 313 310 346 40 338 302 281 273 271 283
225 210 240 197 192 239 331 146 167 138 125 88 85 47 339 48 6 140 264 274 251 300 275 226 259 281 326 278 273 281 295 298 334 309 294 295 261 255 278 292 293 289 293 285 269 283 293
237 225 210 181 226 193 234 189 196 160 136 95 39 170 173 324 336 174 136 281 270 294 235 260 260 199 333 287 292 277 292 305 301 290 276 259 259 252 265 271 288 279 285 287 276 268 255
303 243 219 191 187 209 219 206 195 164 134 82 128 139 172 269 245 202 225 237 240 268 239 260 247 303 298 271 275 291 293 292 284 290 276 251 265 288 280 284 273 291 286 284 276 321 266
288 316 221 203 193 216 215 180 180 157 114 113 122 73 110 267 164 135 229 212 232 358 269 260 296 309 298 290 298 286 277 270 259 263 271 259 257 267 275 290 304 291 231 329 286 343 316
295 287 242 210 191 213 217 201 190 174 151 117 157 115 159 244 200 211 237 236 267 275 276 286 285 278 285 331 306 280 260 260 262 260 244 256 245 203 270 295 243 250 316 299 310 323 337
256 269 253 205 202 227 241 201 184 195 174 125 152 139 187 232 219 252 249 261 275 276 279 281 278 266 298 321 308 318 324 325 288 244 218 219 233 223 227 232 296 299 35 5 324 319 22
257 263 239 185 178 245 232 196 190 193 188 150 164 149 161 167 223 251 273 244 250 257 300 269 288 302 229 36 184 254 297 282 305 322 100 113 190 208 178 240 255 285 343 329 303 254 9
247 250 234 237 243 235 233 228 193 190 199 146 159 170 160 236 228 191 221 224 186 174 236 275 306 291 24 193 218 228 256 273 285 300 338 6 169 215 226 253 278 295 344 324 312 342 338
270 262 245 216 274 208 228 173 168 198 218 166 172 185 188 242 239 201 196 210 229 208 218 228 333 150 111 195 214 237 248 286 283 272 294 284 290 203 206 211 254 66 336 12 320 311 305
237 225 189 170 168 137 125 151 213 218 208 152 192 189 191 222 252 200 212 236 243 240 222 193 210 179 214 215 216 279 263 265 270 282 286 266 262 299 247 256 291 312 291 315 304 308 314